Retour au catalogue

SL-14 DEB

ActifPO
NORAD 26022·DEBRIS·🇷🇺 Russia

Lancé Sep 28, 1991 depuis Plesetsk Cosmodrome

Loading…

Prochains Passages (prochaines 24 heures)

TLE

FraisSource: Space-Track

Époque: Sep 14, 2026, 08:24 UTC

1 26022U 91068AH  26257.35045354  .00000120  00000-0  60758-3 0  9999
2 26022  82.4600 211.6310 0077211 318.8011 195.4539 12.62360797609248

Suivez SL-14 DEB en temps réel avec AllMySat

Download on the App Store